TimeEST,TemperatureF,Dew PointF,Humidity,Sea Level PressureIn,VisibilityMPH,Wind Direction,Wind SpeedMPH,Gust SpeedMPH,PrecipitationIn,Events,Conditions,WindDirDegrees,DateUTC
12:09 AM,37.4,35.6,93,29.97,2.5,Calm,Calm,-,0.01,Rain,Light Rain,0,2012-12-08 05:09:00
12:17 AM,37.4,35.6,93,29.97,2.5,Calm,Calm,-,0.01,Rain,Light Rain,0,2012-12-08 05:17:00
12:54 AM,37.9,36.0,93,29.97,3.0,NE,3.5,-,0.03,Rain,Light Rain,40,2012-12-08 05:54:00
1:11 AM,37.4,35.6,93,29.96,2.5,Calm,Calm,-,0.01,Rain,Light Rain,0,2012-12-08 06:11:00
1:54 AM,37.9,36.0,93,29.96,2.5,Calm,Calm,-,0.05,Rain,Light Rain,0,2012-12-08 06:54:00
2:01 AM,37.4,35.6,93,29.94,4.0,ESE,3.5,-,0.00,Rain,Rain,110,2012-12-08 07:01:00
2:27 AM,37.4,35.6,93,29.92,2.0,NE,5.8,-,0.02,Rain,Light Rain,40,2012-12-08 07:27:00
2:43 AM,37.4,37.4,100,29.92,1.8,NE,4.6,-,0.03,Rain,Light Rain,40,2012-12-08 07:43:00
2:52 AM,37.4,37.4,100,29.92,2.5,NNE,5.8,-,0.03,Rain,Light Rain,30,2012-12-08 07:52:00
2:54 AM,37.9,37.0,97,29.94,2.5,NNE,5.8,-,0.03,Rain,Light Rain,30,2012-12-08 07:54:00
3:09 AM,37.4,37.4,100,29.91,4.0,NE,4.6,-,0.00,Rain,Light Rain,50,2012-12-08 08:09:00
3:54 AM,39.0,37.0,93,29.92,4.0,Calm,Calm,-,0.00,Rain,Light Rain,0,2012-12-08 08:54:00
4:06 AM,39.2,37.4,93,29.90,5.0,Calm,Calm,-,0.01,Rain,Light Rain,0,2012-12-08 09:06:00
4:21 AM,39.2,37.4,93,29.90,1.8,Calm,Calm,-,0.01,Rain,Light Rain,0,2012-12-08 09:21:00
4:31 AM,37.4,37.4,100,29.90,1.8,Calm,Calm,-,0.02,Rain,Light Rain,0,2012-12-08 09:31:00
4:38 AM,37.4,37.4,100,29.90,2.0,Calm,Calm,-,0.02,Rain,Light Rain,0,2012-12-08 09:38:00
4:54 AM,39.0,37.9,96,29.91,2.5,Calm,Calm,-,0.03,Rain,Light Rain,0,2012-12-08 09:54:00
5:07 AM,39.2,37.4,93,29.90,3.0,Calm,Calm,-,0.00,,Overcast,0,2012-12-08 10:07:00
5:19 AM,39.2,37.4,93,29.89,2.5,Calm,Calm,-,0.00,,Overcast,0,2012-12-08 10:19:00
5:35 AM,39.2,37.4,93,29.89,3.0,Calm,Calm,-,0.00,,Overcast,0,2012-12-08 10:35:00
5:49 AM,39.2,37.4,93,29.90,5.0,Calm,Calm,-,0.00,,Overcast,0,2012-12-08 10:49:00
5:54 AM,39.2,37.4,93,29.89,3.0,Calm,Calm,-,N/A,Rain,Light Rain,0,2012-12-08 10:54:00
6:17 AM,39.2,37.4,93,29.89,5.0,Calm,Calm,-,0.00,Rain,Light Rain,0,2012-12-08 11:17:00
6:54 AM,39.0,37.9,96,29.90,6.0,Calm,Calm,-,0.02,,Overcast,0,2012-12-08 11:54:00
7:26 AM,39.2,37.4,93,29.88,4.0,NNW,4.6,-,N/A,,Overcast,330,2012-12-08 12:26:00
7:28 AM,39.2,37.4,93,29.88,1.8,NNW,4.6,-,N/A,,Overcast,330,2012-12-08 12:28:00
7:34 AM,39.2,37.4,93,29.88,0.2,Calm,Calm,-,N/A,Fog,Fog,0,2012-12-08 12:34:00
7:37 AM,39.2,37.4,93,29.88,0.2,Calm,Calm,-,N/A,Fog,Fog,0,2012-12-08 12:37:00
7:45 AM,39.2,37.4,93,29.88,0.5,Calm,Calm,-,N/A,Fog,Fog,0,2012-12-08 12:45:00
7:54 AM,39.0,37.9,96,29.90,0.8,Calm,Calm,-,N/A,,Mist,0,2012-12-08 12:54:00
8:05 AM,39.2,37.4,93,29.89,0.2,Calm,Calm,-,N/A,Fog,Fog,0,2012-12-08 13:05:00
8:15 AM,39.2,37.4,93,29.90,0.2,Calm,Calm,-,N/A,Fog,Fog,0,2012-12-08 13:15:00
8:21 AM,39.2,37.4,93,29.90,0.5,Calm,Calm,-,N/A,Fog,Fog,0,2012-12-08 13:21:00
8:37 AM,39.2,37.4,93,29.90,0.5,Calm,Calm,-,N/A,Fog,Fog,0,2012-12-08 13:37:00
8:50 AM,39.2,39.2,100,29.91,1.5,Calm,Calm,-,N/A,,Overcast,0,2012-12-08 13:50:00
8:54 AM,39.9,39.0,97,29.92,1.5,Calm,Calm,-,N/A,,Overcast,0,2012-12-08 13:54:00
9:07 AM,39.2,39.2,100,29.90,2.5,Calm,Calm,-,N/A,,Overcast,0,2012-12-08 14:07:00
9:29 AM,41.0,39.2,93,29.90,3.0,Calm,Calm,-,N/A,,Overcast,0,2012-12-08 14:29:00
9:54 AM,42.1,39.9,92,29.91,5.0,Calm,Calm,-,N/A,,Overcast,0,2012-12-08 14:54:00
10:36 AM,42.8,39.2,87,29.90,4.0,Calm,Calm,-,N/A,,Overcast,0,2012-12-08 15:36:00
10:54 AM,42.1,39.9,92,29.91,4.0,West,3.5,-,N/A,,Overcast,260,2012-12-08 15:54:00
11:06 AM,42.8,41.0,93,29.88,4.0,Calm,Calm,-,N/A,,Overcast,0,2012-12-08 16:06:00
11:44 AM,44.6,42.8,93,29.86,5.0,Calm,Calm,-,N/A,,Overcast,0,2012-12-08 16:44:00
11:54 AM,45.0,41.0,86,29.86,5.0,Calm,Calm,-,N/A,,Mostly Cloudy,0,2012-12-08 16:54:00
12:02 PM,44.6,42.8,93,29.85,5.0,WNW,3.5,-,N/A,,Overcast,290,2012-12-08 17:02:00
12:13 PM,44.6,41.0,87,29.86,5.0,NW,4.6,-,N/A,,Overcast,310,2012-12-08 17:13:00
12:54 PM,46.0,43.0,89,29.86,6.0,SW,4.6,-,N/A,,Overcast,220,2012-12-08 17:54:00
1:54 PM,46.9,43.0,86,29.86,7.0,SW,8.1,-,N/A,,Overcast,220,2012-12-08 18:54:00
2:52 PM,48.2,44.6,87,29.86,6.0,West,8.1,-,N/A,,Overcast,260,2012-12-08 19:52:00
2:54 PM,48.0,44.1,86,29.87,6.0,West,8.1,-,N/A,,Overcast,260,2012-12-08 19:54:00
3:17 PM,46.4,44.6,93,29.87,6.0,WSW,5.8,-,N/A,,Mostly Cloudy,250,2012-12-08 20:17:00
3:29 PM,46.4,44.6,93,29.87,5.0,WSW,3.5,-,N/A,,Overcast,240,2012-12-08 20:29:00
3:46 PM,46.4,44.6,93,29.88,5.0,SW,3.5,-,N/A,,Overcast,230,2012-12-08 20:46:00
3:54 PM,46.9,44.1,90,29.88,5.0,South,3.5,-,N/A,,Overcast,190,2012-12-08 20:54:00
4:54 PM,46.0,43.0,89,29.89,6.0,SSW,3.5,-,N/A,,Overcast,200,2012-12-08 21:54:00
5:05 PM,46.4,42.8,87,29.89,6.0,SSW,3.5,-,N/A,,Overcast,210,2012-12-08 22:05:00
5:54 PM,46.0,44.1,93,29.91,5.0,Calm,Calm,-,N/A,,Overcast,0,2012-12-08 22:54:00
6:54 PM,46.0,44.1,93,29.93,6.0,SSW,3.5,-,N/A,,Overcast,210,2012-12-08 23:54:00
7:54 PM,46.0,44.1,93,29.95,5.0,WSW,3.5,-,N/A,,Overcast,240,2012-12-09 00:54:00
8:45 PM,46.4,44.6,93,29.95,5.0,SSW,3.5,-,N/A,,Overcast,200,2012-12-09 01:45:00
8:54 PM,46.0,44.1,93,29.97,4.0,Calm,Calm,-,N/A,,Overcast,0,2012-12-09 01:54:00
9:54 PM,46.4,44.6,93,29.98,5.0,SSW,4.6,-,N/A,,Overcast,210,2012-12-09 02:54:00
10:54 PM,46.9,44.1,90,30.01,5.0,SSW,4.6,-,N/A,,Overcast,210,2012-12-09 03:54:00
11:43 PM,44.6,42.8,93,30.02,2.5,North,3.5,-,N/A,,Overcast,360,2012-12-09 04:43:00
11:52 PM,44.6,44.6,100,30.02,1.8,SSW,3.5,-,N/A,,Overcast,210,2012-12-09 04:52:00
11:54 PM,45.0,44.1,97,30.03,2.0,South,3.5,-,N/A,,Overcast,190,2012-12-09 04:54:00